Location: Étavigny
(49.1201°N, 2.9800°E)
Time: 18:49:36
(UTC+00:00)

Cosmos 1867 - Visible Passes

Search period start: 01 October 2023 00:00
Search period end: 11 October 2023 00:00
Orbit: 775 x 799 km, 65.0° (Epoch: 01 October)

Date Brightness Start Highest point End Pass type
(mag) Time Alt. Az. Time Alt. Az. Time Alt. Az.
01 Oct 5.7 01:36:51 16° NNW 01:39:42 23° NNE 01:44:02 10° ENE visible
01 Oct 3.7 03:18:43 10° NW 03:24:13 72° NE 03:29:40 10° SE visible
01 Oct 4.7 05:03:05 10° WNW 05:07:18 23° WSW 05:11:30 10° SSW visible
01 Oct 4.9 18:05:38 10° SSE 18:09:13 18° ESE 18:12:51 10° ENE visible
01 Oct 3.5 19:46:40 10° SW 19:52:07 87° NW 19:56:44 15° NE visible
01 Oct 5.5 21:31:56 10° W 21:36:27 26° NNW 21:37:27 24° NNW visible
01 Oct6.623:27:11NE23:27:11NE23:18:11NWvisible
02 Oct 5.9 01:08:01 20° NNE 01:08:01 20° NNE 01:11:41 10° ENE visible
02 Oct 4.1 02:48:50 22° NNW 02:52:21 58° NE 02:57:44 10° SE visible
02 Oct 4.3 04:30:58 10° NW 04:35:40 30° WSW 04:40:22 10° S visible
02 Oct 3.4 19:14:55 10° SSW 19:20:20 74° SE 19:25:48 10° NE visible
02 Oct 5.3 20:59:39 10° W 21:04:26 30° NNW 21:07:20 19° NNE visible
02 Oct 6.3 22:46:31 10° NW 22:48:01 14° NNW 22:48:01 14° NNW visible
03 Oct6.500:39:45ENE00:39:45ENE00:28:42NWvisible
03 Oct 4.5 02:20:36 46° NE 02:20:36 46° NE 02:25:43 10° ESE visible
03 Oct 3.9 04:01:27 25° WNW 04:04:01 40° WSW 04:09:03 10° S visible
03 Oct 3.6 18:43:17 10° SSW 18:48:35 57° ESE 18:53:56 10° NE visible
03 Oct 5.0 20:27:27 10° WSW 20:32:27 36° NW 20:36:47 13° NNE visible
03 Oct 6.1 22:14:11 10° NW 22:17:27 17° NNW 22:17:27 17° NNW visible
04 Oct 5.9 01:52:32 15° E 01:52:32 15° E 01:53:36 10° ESE visible
04 Oct 3.9 03:33:23 45° SSW 03:33:23 45° SSW 03:37:35 10° SSE visible
04 Oct 3.9 18:11:46 10° S 18:16:52 43° ESE 18:22:01 10° NE visible
04 Oct 4.7 19:55:19 10° WSW 20:00:30 43° NW 20:05:44 10° NNE visible
04 Oct 6.0 21:41:49 10° WNW 21:45:30 18° NNW 21:46:40 17° N visible
05 Oct 5.7 03:05:11 14° SSE 03:05:11 14° SSE 03:05:59 10° SSE visible
05 Oct 4.3 19:23:16 10° WSW 19:28:35 53° NW 19:33:58 10° NNE visible
05 Oct 5.9 21:09:26 10° WNW 21:13:23 20° NNW 21:15:46 15° N visible
05 Oct 6.5 22:55:56 10° NNW 22:56:25 11° NNW 22:56:25 11° NNW visible
06 Oct 3.9 18:51:18 10° SW 18:56:43 67° NW 19:02:11 10° NE visible
06 Oct 5.7 20:37:05 10° WNW 20:41:18 22° NNW 20:44:48 13° NNE visible
06 Oct 6.3 22:23:49 10° NNW 22:25:27 14° NNW 22:25:27 14° NNW visible
07 Oct 3.6 18:19:25 10° SW 18:24:53 84° NW 18:30:23 10° NE visible
07 Oct 5.6 20:04:45 10° W 20:09:15 25° NNW 20:13:46 10° NNE visible
07 Oct 6.2 21:51:37 10° NW 21:54:27 15° N 21:54:27 15° N visible
08 Oct 3.6 17:47:39 10° SSW 17:53:05 77° SE 17:58:34 10° NE visible
08 Oct 5.3 19:32:28 10° W 19:37:13 29° NNW 19:42:00 10° NNE visible
08 Oct 6.0 21:19:21 10° NW 21:22:35 16° N 21:23:26 15° N visible
09 Oct 5.1 19:00:15 10° WSW 19:05:13 35° NW 19:10:14 10° NNE visible
09 Oct 6.0 20:47:01 10° NW 20:50:26 16° NNW 20:52:23 14° NNE visible
09 Oct 6.5 22:32:38 10° NNW 22:33:02 11° NNW 22:33:02 11° NNW visible
10 Oct 4.8 18:28:07 10° WSW 18:33:16 42° NW 18:38:28 10° NNE visible
10 Oct 5.9 20:14:39 10° WNW 20:18:18 18° NNW 20:21:20 12° NNE visible
10 Oct 6.3 22:00:42 10° NNW 22:01:59 13° NNW 22:01:59 13° NNW visible
